Location: *
(46.4000°N, 12.6667°E)
Time: 23:03:36
(UTC+00:00)

Cosmos 2278 - Pass Details

Date: 09 April 2020
Orbit: 840 x 853 km, 71.1° (Epoch: 03 June)

Event Time Altitude Azimuth Distance (km) Brightness Sun altitude
Rises 20:23:56 0° 337° (NNW) 3,405 8.0 -24.2°
Reaches altitude 10° 20:26:30 10° 343° (NNW) 2,468 6.9 -24.5°
Maximum altitude 20:31:55 45° 56° (ENE) 1,132 4.2 -25.1°
Enters shadow 20:32:23 44° 70° (ENE) 1,147 4.1 -25.2°
